Vertical_Velocity
4 4 4 3 3 3 2 2 1 1 1 1 0 -1 -1 -1 -1 -1 -1 -0 2 2 2 2 2 1 -0 -1 0 -0 -1 -2 -2 -3 -4 -5 -4 -2 -1 1 -1 -3 -5 -5 -3 0 3 4 3 0 -2 -4 -4 0 9 22 25 16 3 -9 -3 8 14 9 1 -1 -1 -2 -3
4 4 4 5 5 4 4 3 3 3 2 2 1 -0 -1 -1 -1 -2 -2 -2 -1 -1 -0 1 2 3 3 1 -1 -2 -2 -2 -2 -2 -3 -3 -3 -3 -1 0 -0 -2 -5 -6 -5 -3 0 3 3 1 -2 -5 -5 -2 3 12 20 20 14 3 -0 6 15 19 6 0 -2 -4 -5
1 2 3 5 5 5 4 4 4 4 4 3 2 1 1 0 -0 -1 -1 -2 -3 -3 -2 -1 -0 1 3 3 1 -1 -2 -3 -4 -4 -3 -3 -3 -2 -0 1 1 -0 -3 -6 -6 -4 -2 1 1 -0 -3 -5 -4 -3 -1 2 9 11 10 7 9 14 20 23 17 8 -0 -7 -5
-0 1 2 3 4 4 4 3 4 4 4 4 3 3 3 3 1 0 -0 -1 -1 -1 -2 -3 -3 -2 -0 2 2 1 0 -2 -4 -5 -6 -6 -4 -2 0 2 2 1 -1 -4 -5 -5 -3 -1 -1 -2 -3 -4 -3 -3 -3 -3 1 1 0 -1 9 20 27 27 25 17 7 -3 -4
-0 1 2 2 3 2 2 2 3 4 4 3 4 5 5 5 3 2 2 1 1 1 -1 -2 -3 -3 -3 -1 0 1 1 1 -0 -3 -6 -8 -7 -5 -1 2 3 3 0 -3 -4 -4 -3 -1 -2 -3 -4 -4 -4 -4 -4 -3 -1 -1 -2 -4 4 13 21 26 27 26 21 12 4
-0 1 1 2 2 2 2 2 3 3 3 2 4 5 6 5 4 4 4 4 3 2 1 1 1 -0 -2 -2 -2 -1 -0 1 2 1 -1 -6 -8 -7 -4 0 3 2 1 -2 -3 -3 -3 -1 -2 -3 -4 -5 -5 -5 -4 -2 -1 -0 -0 -0 -0 4 10 16 19 23 27 28 17
-1 -0 0 0 1 1 1 1 1 1 2 2 3 5 5 3 4 5 5 4 2 2 3 4 3 2 1 -0 -1 -1 -1 -1 0 2 2 -0 -5 -6 -5 -2 0 1 1 -1 -2 -3 -3 -2 -2 -3 -4 -4 -5 -5 -4 -2 -2 -2 -1 2 -1 -1 1 5 9 12 18 26 24
-3 -2 -2 -2 -2 -1 -1 -1 -1 -1 -1 0 1 2 2 2 3 3 3 2 2 2 3 3 3 3 3 1 0 -0 -1 -1 -0 1 2 2 -0 -3 -4 -3 -1 1 1 -0 -2 -3 -3 -4 -4 -4 -3 -3 -4 -4 -5 -4 -3 -4 -3 -1 0 -1 -2 -1 3 6 9 13 20
-5 -4 -4 -4 -4 -3 -3 -3 -4 -4 -3 -3 -2 -1 -0 1 1 1 0 0 0 -0 0 1 2 2 2 1 1 -0 -1 -1 -1 0 1 2 1 -1 -3 -3 -1 1 2 1 -1 -3 -4 -6 -6 -6 -4 -3 -2 -3 -4 -5 -4 -5 -5 -5 -0 1 -0 -2 2 4 4 2 12
-5 -5 -5 -4 -3 -3 -4 -4 -4 -4 -5 -5 -5 -4 -3 -1 -1 -1 -2 -3 -4 -3 -2 -0 -0 -1 -1 0 -0 -1 -2 -3 -2 -1 -0 0 1 -0 -2 -4 -2 1 3 3 1 -2 -5 -7 -8 -7 -6 -4 -2 -2 -3 -4 -3 -5 -7 -9 -3 0 1 -0 1 2 3 2 7
-4 -4 -3 -3 -3 -3 -3 -3 -3 -4 -5 -5 -5 -5 -4 -3 -2 -3 -4 -6 -6 -5 -4 -4 -4 -4 -3 -2 -2 -3 -4 -4 -4 -4 -3 -1 -0 -1 -2 -5 -4 -1 2 4 2 -0 -4 -7 -8 -8 -7 -6 -3 -2 -1 -2 -2 -4 -7 -10 -5 -1 2 2 1 1 2 3 7
-3 -3 -3 -2 -2 -3 -3 -3 -3 -4 -5 -5 -5 -5 -5 -4 -4 -4 -6 -7 -7 -6 -7 -8 -7 -6 -5 -5 -5 -5 -5 -5 -6 -6 -5 -4 -3 -3 -4 -6 -5 -3 -1 2 2 1 -2 -5 -7 -7 -7 -7 -5 -3 -1 -0 -1 -3 -6 -8 -7 -4 -0 1 1 1 1 3 7
-3 -3 -3 -3 -3 -3 -3 -4 -5 -5 -6 -5 -5 -5 -5 -5 -4 -5 -5 -6 -7 -8 -9 -10 -8 -7 -6 -7 -8 -8 -7 -7 -8 -8 -7 -6 -5 -5 -6 -7 -6 -5 -3 -1 1 0 -1 -4 -6 -6 -6 -6 -6 -4 -2 1 1 -1 -3 -6 -6 -5 -3 -1 0 1 1 3 6
-3 -3 -3 -3 -4 -4 -4 -5 -6 -6 -7 -6 -6 -7 -6 -6 -5 -5 -4 -5 -6 -8 -10 -10 -8 -7 -7 -8 -9 -9 -8 -8 -9 -9 -9 -8 -7 -6 -6 -7 -7 -6 -4 -3 -2 -2 -2 -4 -6 -6 -5 -5 -6 -5 -2 1 1 -0 -2 -4 -5 -5 -4 -3 -1 1 2 3 5
-3 -3 -3 -3 -4 -4 -4 -5 -6 -7 -7 -7 -7 -8 -8 -7 -6 -5 -4 -4 -5 -7 -8 -9 -8 -8 -8 -8 -8 -8 -8 -9 -10 -10 -10 -10 -9 -7 -6 -6 -7 -6 -6 -5 -4 -4 -3 -4 -6 -6 -5 -4 -4 -4 -2 1 1 1 -1 -3 -3 -3 -3 -2 -1 1 3 4 3
-3 -4 -4 -4 -4 -4 -5 -5 -6 -6 -7 -7 -8 -8 -8 -8 -7 -6 -5 -4 -5 -6 -6 -6 -6 -7 -8 -7 -6 -6 -7 -9 -9 -10 -10 -10 -10 -8 -6 -5 -5 -6 -7 -7 -5 -4 -4 -4 -5 -5 -4 -3 -3 -3 -1 1 2 2 1 -1 -1 -0 -0 -1 -2 0 2 3 2
-3 -4 -4 -4 -4 -4 -5 -5 -5 -5 -6 -6 -7 -7 -7 -7 -8 -7 -6 -4 -5 -5 -5 -4 -5 -5 -6 -5 -5 -5 -5 -6 -7 -8 -9 -10 -10 -9 -7 -5 -4 -5 -6 -7 -6 -4 -3 -3 -4 -4 -4 -2 -1 -1 0 2 4 4 3 1 1 2 1 -1 -2 -1 1 2 1
-3 -4 -4 -4 -4 -5 -5 -4 -4 -4 -5 -5 -6 -6 -6 -6 -7 -7 -6 -5 -5 -4 -4 -5 -4 -4 -3 -3 -4 -4 -4 -4 -5 -7 -8 -8 -9 -8 -7 -6 -4 -4 -4 -6 -6 -4 -2 -1 -3 -3 -2 -0 1 2 2 3 4 3 3 4 4 4 3 1 -0 -1 -0 0 -0
-4 -4 -4 -4 -5 -5 -5 -4 -4 -4 -4 -4 -4 -5 -5 -5 -5 -6 -6 -6 -5 -4 -4 -5 -4 -2 -1 -1 -2 -2 -3 -3 -4 -5 -6 -6 -7 -7 -6 -5 -4 -3 -3 -5 -5 -3 -1 -0 -1 -1 -1 2 3 4 5 6 4 3 3 5 6 6 5 3 2 1 -0 -0 -2
-4 -4 -5 -5 -5 -5 -4 -4 -3 -3 -4 -4 -3 -3 -4 -4 -4 -5 -5 -5 -5 -4 -3 -3 -3 -2 -0 1 0 -0 -1 -1 -2 -3 -4 -4 -4 -4 -4 -4 -3 -3 -3 -3 -4 -3 -1 -0 -1 -0 1 4 5 6 7 8 7 5 3 3 6 7 7 4 3 3 2 -0 -3
-4 -4 -5 -5 -5 -4 -4 -4 -3 -3 -3 -3 -3 -3 -3 -3 -3 -3 -4 -4 -4 -3 -2 -2 -1 -0 1 1 1 1 0 -0 -0 -1 -1 -2 -2 -2 -2 -3 -2 -2 -2 -3 -3 -3 -2 -1 -1 -0 2 5 7 8 8 10 10 7 4 3 7 8 8 4 4 5 5 2 0
-4 -4 -4 -4 -4 -4 -4 -3 -3 -3 -3 -3 -3 -3 -3 -3 -3 -3 -3 -3 -3 -2 -2 -1 -0 1 1 2 1 1 1 1 1 1 1 0 -0 -1 -1 -1 -1 -2 -2 -3 -3 -3 -2 -2 -2 -1 1 5 7 8 9 11 10 8 5 4 10 10 7 3 7 8 7 6 3
-3 -3 -3 -3 -3 -3 -3 -3 -3 -3 -3 -3 -3 -3 -3 -3 -3 -3 -3 -2 -2 -1 -1 -0 1 2 2 1 1 1 0 1 2 3 3 2 1 0 -0 -1 -1 -1 -2 -2 -3 -2 -2 -3 -3 -2 0 4 6 8 10 11 12 9 7 8 13 10 6 11 14 11 6 7 5
-2 -2 -3 -3 -3 -3 -3 -3 -3 -3 -3 -3 -4 -3 -3 -3 -3 -3 -2 -2 -1 -0 0 1 1 2 1 1 1 1 1 1 2 3 3 4 3 1 0 -1 -1 -1 -2 -2 -2 -2 -2 -2 -3 -3 -1 2 5 7 9 11 12 12 11 12 11 10 11 20 18 14 10 11 6
-1 -2 -2 -2 -2 -2 -3 -2 -2 -3 -3 -4 -4 -4 -4 -4 -3 -3 -3 -2 -0 0 1 1 1 1 1 1 1 1 2 2 2 2 3 3 3 2 1 -1 -1 -2 -1 -1 -1 -1 -1 -2 -3 -3 -2 0 4 6 9 11 14 15 13 11 11 13 15 14 12 12 13 12 4
-1 -1 -1 -1 -2 -2 -2 -2 -3 -3 -3 -4 -4 -4 -4 -4 -4 -3 -3 -2 -0 1 1 1 0 1 1 1 1 2 2 3 2 1 1 2 2 2 1 -1 -2 -2 -1 -1 -1 -1 -1 -2 -3 -3 -2 -0 2 5 8 9 14 16 17 17 18 16 11 4 5 7 8 3 -0
-1 -1 -2 -2 -2 -2 -2 -3 -3 -3 -3 -4 -4 -4 -4 -4 -4 -3 -2 -1 -0 1 1 1 1 0 0 0 2 2 3 3 2 1 1 1 2 2 1 -0 -2 -2 -2 -1 -1 -1 -1 -2 -3 -3 -2 -1 1 3 5 6 12 22 28 26 20 13 6 -1 0 1 -1 -4 -4
-2 -2 -3 -3 -2 -2 -2 -2 -2 -3 -4 -4 -4 -4 -5 -4 -4 -3 -2 -1 -0 0 1 1 0 -0 -0 0 2 3 3 2 2 1 2 2 2 2 1 0 -1 -2 -2 -1 -1 -1 -1 -2 -2 -2 -2 -1 1 1 2 5 16 32 40 31 17 7 1 -1 -1 -2 -4 -6 -5
-2 -3 -3 -3 -3 -2 -1 -1 -1 -2 -3 -4 -4 -4 -4 -4 -3 -2 -1 -1 0 1 1 0 -0 0 1 1 2 2 2 2 2 2 2 2 2 2 2 1 -1 -3 -3 -1 -0 -0 -0 -1 -2 -2 -2 -0 0 1 3 11 26 36 37 26 10 2 1 5 3 -0 -4 -5 -3
-2 -2 -3 -3 -2 -2 -1 -0 -1 -2 -2 -3 -3 -4 -4 -4 -3 -2 -1 -0 0 1 1 0 -0 0 1 2 2 2 2 2 2 1 0 -0 -0 0 0 -1 -3 -4 -3 -2 -1 -0 -0 -1 -2 -2 -1 -0 1 4 11 22 32 35 30 17 6 4 5 6 4 1 -1 -1 1
-1 -2 -2 -3 -2 -1 -1 -0 -0 -1 -1 -2 -3 -3 -3 -3 -3 -2 -1 -0 -0 0 1 1 0 0 1 2 2 2 1 1 1 0 -1 -2 -2 -3 -3 -5 -6 -6 -5 -4 -2 -1 -1 -2 -3 -2 -1 0 4 11 20 27 28 23 15 7 6 8 9 8 5 4 3 4 5
-1 -2 -2 -3 -2 -2 -1 0 0 -0 -1 -2 -3 -3 -3 -2 -2 -2 -1 -0 -0 0 1 1 0 0 1 2 3 2 1 0 -0 -1 -1 -2 -3 -4 -6 -7 -7 -7 -6 -3 -1 -0 -1 -3 -3 -2 -0 4 11 18 22 23 16 9 5 5 8 9 9 8 6 5 5 6 6
-1 -2 -2 -3 -3 -2 -1 0 -0 -1 -2 -2 -2 -2 -2 -2 -2 -2 -1 -0 -0 -0 -0 0 1 1 2 4 4 3 1 -1 -2 -2 -1 -0 -2 -4 -6 -7 -7 -6 -4 -0 1 0 -2 -4 -3 -1 3 9 16 20 20 14 7 4 4 8 9 9 7 5 4 4 5 5 5
-2 -2 -3 -3 -3 -2 -1 -1 -1 -2 -2 -3 -2 -1 -1 -2 -2 -2 -1 -0 -1 -1 -1 -0 1 3 4 5 5 2 -0 -2 -2 -1 1 2 -1 -3 -5 -6 -6 -4 -1 2 1 -0 -2 -2 -0 3 8 13 18 18 15 7 4 4 6 8 7 6 4 3 2 2 3 3 3
-2 -3 -3 -3 -2 -2 -2 -2 -2 -3 -3 -3 -2 -1 -1 -1 -2 -2 -1 -1 -1 -1 -1 1 3 5 6 6 4 1 -1 -3 -0 2 4 3 1 -2 -4 -5 -4 -1 2 4 2 1 0 1 3 7 11 16 17 14 9 3 2 3 4 4 3 2 2 1 1 1 1 2 4
-2 -3 -3 -3 -3 -2 -3 -3 -3 -3 -3 -3 -2 -1 -1 -1 -1 -1 -1 -2 -2 -1 0 3 5 7 6 5 2 0 -1 -0 3 4 4 3 1 -1 -3 -3 -1 2 5 6 4 3 3 3 6 9 13 15 14 10 5 1 -0 -0 -0 1 1 2 3 3 3 3 4 6 9
-1 -2 -3 -4 -4 -3 -3 -4 -4 -3 -3 -2 -1 -1 -1 -0 -0 -1 -1 -2 -3 -1 1 5 7 7 6 4 1 0 1 3 5 5 4 2 0 -1 -1 -1 1 4 6 8 8 6 5 5 6 9 11 12 11 8 6 3 1 1 1 3 5 6 7 7 7 9 11 13 13
-1 -2 -3 -4 -4 -4 -4 -4 -3 -3 -3 -2 -0 -0 0 -0 -0 -1 -1 -2 -2 -0 3 7 7 6 4 2 1 1 2 4 4 4 3 2 1 1 2 3 4 5 6 8 8 8 6 5 5 6 7 7 6 6 5 5 5 7 9 11 13 12 12 11 12 14 15 15 14
-1 -2 -3 -4 -5 -5 -4 -3 -3 -2 -1 -1 0 1 1 0 -0 -1 -1 -2 -1 1 4 6 6 5 3 1 1 2 4 4 4 3 3 2 3 5 7 8 6 5 5 6 8 7 6 4 4 3 2 1 1 1 2 4 8 11 15 17 17 15 14 13 15 15 14 11 9
-1 -2 -3 -4 -4 -4 -4 -3 -2 -1 -0 1 1 1 1 1 -0 -1 -1 -0 1 2 4 4 4 3 2 2 3 4 4 4 4 4 4 5 7 9 10 9 7 5 5 6 7 7 5 4 2 0 -1 -2 -2 -1 1 4 8 12 14 15 15 14 12 10 11 10 8 5 4
-1 -1 -2 -3 -3 -3 -3 -2 -1 1 1 2 2 2 1 0 -0 -0 0 1 2 3 2 2 2 2 3 5 5 4 4 4 5 5 6 9 11 11 10 8 6 6 6 7 7 6 4 2 -0 -2 -3 -2 -0 2 5 8 11 12 12 10 10 10 9 6 5 3 1 -0 -0
Height
5592 5592 5591 5591 5590 5589 5588 5588 5588 5587 5587 5586 5586 5586 5586 5586 5586 5586 5586 5587 5587 5586 5587 5587 5587 5587 5588 5588 5588 5588 5588 5588 5588 5588 5589 5590 5591 5592 5593 5594 5594 5594 5594 5595 5596 5597 5598 5600 5602 5603 5605 5607 5611 5613 5615 5617 5618 5617 5616 5617 5617 5617 5618 5617 5617 5616 5615 5617 5618
5586 5586 5585 5584 5583 5582 5582 5581 5581 5580 5580 5579 5579 5579 5579 5579 5579 5579 5578 5579 5579 5579 5579 5579 5580 5580 5580 5580 5580 5580 5580 5581 5581 5582 5582 5583 5583 5585 5586 5587 5588 5588 5588 5588 5589 5591 5592 5593 5595 5596 5597 5599 5603 5605 5607 5609 5612 5613 5613 5613 5613 5613 5614 5614 5612 5610 5610 5611 5613
5580 5579 5579 5578 5577 5575 5574 5574 5573 5573 5573 5572 5572 5571 5571 5571 5571 5571 5571 5571 5571 5571 5571 5571 5572 5573 5573 5573 5572 5572 5573 5573 5573 5574 5575 5575 5576 5578 5579 5580 5581 5581 5581 5581 5582 5583 5585 5587 5588 5589 5590 5592 5595 5598 5599 5601 5603 5605 5607 5608 5609 5611 5612 5610 5608 5607 5606 5606 5608
5573 5573 5572 5571 5570 5569 5568 5567 5566 5566 5565 5565 5564 5564 5564 5563 5563 5563 5563 5563 5563 5563 5563 5563 5563 5564 5564 5565 5565 5565 5565 5565 5565 5566 5567 5568 5569 5570 5571 5572 5573 5574 5574 5575 5575 5576 5578 5579 5581 5582 5583 5585 5588 5590 5592 5594 5597 5598 5599 5601 5604 5606 5606 5606 5605 5604 5603 5603 5603
5567 5566 5565 5564 5563 5562 5560 5560 5559 5559 5558 5557 5557 5557 5557 5556 5555 5555 5555 5555 5555 5555 5555 5555 5555 5555 5556 5556 5557 5557 5557 5557 5557 5557 5558 5559 5561 5562 5563 5564 5565 5566 5567 5567 5568 5569 5571 5572 5573 5575 5577 5579 5581 5583 5584 5587 5591 5592 5593 5594 5596 5598 5599 5601 5602 5601 5601 5601 5600
5560 5559 5558 5557 5555 5554 5553 5552 5552 5551 5550 5549 5550 5549 5549 5548 5547 5547 5547 5547 5546 5546 5547 5547 5547 5547 5547 5548 5548 5548 5548 5549 5549 5549 5549 5550 5551 5553 5555 5556 5557 5558 5558 5559 5560 5562 5563 5564 5566 5568 5570 5573 5574 5576 5578 5580 5582 5584 5586 5587 5588 5590 5592 5594 5595 5597 5598 5598 5597
5553 5552 5551 5549 5548 5546 5545 5544 5543 5543 5542 5542 5542 5541 5541 5540 5539 5539 5538 5538 5538 5538 5538 5538 5538 5538 5538 5538 5539 5539 5539 5540 5541 5541 5541 5542 5542 5544 5546 5548 5549 5550 5550 5551 5553 5554 5555 5557 5558 5560 5563 5565 5568 5569 5571 5573 5574 5576 5578 5580 5580 5582 5584 5586 5587 5589 5591 5592 5592
5545 5544 5543 5541 5540 5538 5537 5536 5534 5534 5533 5533 5533 5533 5532 5531 5531 5530 5529 5529 5529 5529 5529 5529 5530 5530 5529 5529 5530 5530 5531 5531 5532 5532 5533 5533 5534 5535 5536 5538 5540 5541 5542 5543 5544 5545 5547 5548 5550 5552 5554 5558 5560 5563 5564 5566 5567 5568 5570 5573 5574 5575 5577 5578 5579 5581 5583 5585 5586
5537 5536 5534 5533 5532 5530 5529 5527 5526 5525 5525 5524 5524 5524 5523 5523 5522 5521 5520 5520 5519 5519 5519 5520 5520 5520 5520 5520 5520 5521 5521 5522 5523 5523 5524 5524 5525 5526 5527 5528 5530 5532 5533 5534 5535 5536 5538 5539 5541 5543 5546 5549 5553 5555 5557 5558 5560 5561 5563 5565 5568 5569 5570 5571 5571 5572 5574 5577 5579
5529 5528 5526 5525 5523 5522 5520 5519 5518 5517 5516 5516 5515 5515 5514 5514 5513 5512 5511 5510 5509 5510 5510 5510 5510 5510 5510 5510 5510 5511 5511 5512 5513 5513 5514 5515 5516 5517 5518 5519 5521 5523 5524 5525 5526 5527 5528 5530 5532 5535 5538 5541 5544 5546 5548 5550 5553 5554 5555 5557 5559 5562 5563 5564 5565 5566 5567 5569 5572
5521 5519 5518 5517 5515 5513 5512 5510 5509 5508 5507 5507 5506 5506 5506 5505 5504 5503 5502 5500 5500 5500 5501 5500 5500 5500 5500 5501 5500 5501 5501 5502 5503 5503 5504 5505 5506 5507 5508 5509 5511 5513 5515 5516 5517 5518 5519 5520 5523 5526 5529 5532 5535 5538 5540 5542 5544 5546 5548 5549 5551 5553 5555 5557 5558 5560 5561 5562 5563
5513 5511 5510 5508 5506 5504 5503 5502 5500 5499 5498 5498 5497 5497 5496 5496 5495 5494 5492 5491 5491 5491 5490 5490 5490 5490 5490 5490 5490 5490 5491 5491 5492 5493 5494 5495 5495 5496 5497 5499 5501 5503 5506 5507 5508 5508 5509 5511 5513 5517 5520 5522 5526 5529 5532 5534 5536 5538 5540 5541 5543 5545 5548 5550 5551 5553 5554 5556 5557
5504 5503 5501 5499 5497 5495 5494 5492 5491 5489 5489 5488 5488 5487 5486 5486 5485 5484 5483 5482 5481 5481 5480 5480 5480 5480 5480 5480 5480 5480 5480 5481 5481 5482 5483 5484 5485 5486 5487 5489 5491 5494 5496 5497 5498 5499 5500 5501 5504 5507 5510 5513 5516 5519 5523 5526 5528 5530 5531 5532 5534 5538 5540 5543 5544 5546 5548 5550 5552
5496 5494 5492 5490 5488 5486 5484 5483 5481 5480 5479 5478 5478 5477 5476 5475 5475 5474 5473 5472 5471 5470 5470 5469 5470 5470 5470 5469 5469 5469 5470 5470 5470 5471 5472 5473 5474 5475 5476 5478 5481 5483 5485 5486 5488 5489 5490 5492 5494 5498 5501 5504 5506 5510 5514 5517 5519 5520 5522 5523 5526 5529 5532 5535 5537 5539 5542 5544 5546
5487 5485 5483 5481 5479 5477 5475 5473 5471 5470 5469 5468 5468 5467 5466 5465 5464 5464 5463 5462 5461 5460 5459 5459 5459 5459 5459 5459 5459 5459 5459 5459 5459 5460 5461 5462 5463 5464 5466 5467 5469 5471 5473 5475 5477 5478 5480 5482 5484 5488 5491 5494 5497 5500 5504 5508 5510 5511 5513 5515 5518 5521 5524 5527 5529 5531 5534 5537 5539
5478 5476 5473 5471 5469 5467 5465 5463 5462 5460 5459 5458 5457 5456 5456 5455 5454 5453 5453 5452 5451 5450 5449 5449 5449 5448 5448 5448 5448 5448 5448 5448 5448 5449 5449 5450 5452 5453 5455 5456 5458 5460 5461 5463 5465 5468 5469 5471 5474 5477 5481 5484 5487 5491 5494 5498 5501 5503 5505 5507 5510 5513 5516 5519 5521 5523 5526 5529 5532
5469 5466 5464 5462 5459 5458 5456 5454 5452 5451 5449 5448 5448 5447 5446 5445 5444 5443 5443 5443 5441 5441 5440 5440 5439 5439 5438 5438 5438 5438 5438 5438 5438 5438 5438 5439 5441 5442 5444 5445 5447 5449 5451 5452 5454 5456 5459 5461 5463 5467 5471 5475 5478 5481 5485 5489 5492 5494 5497 5499 5503 5505 5508 5511 5513 5516 5519 5522 5525
5459 5457 5454 5452 5450 5448 5446 5445 5443 5442 5440 5439 5438 5437 5436 5435 5435 5434 5433 5433 5432 5432 5431 5430 5430 5430 5430 5429 5429 5429 5428 5428 5428 5428 5429 5429 5430 5432 5433 5434 5436 5438 5440 5441 5443 5446 5449 5451 5453 5456 5460 5465 5469 5472 5475 5479 5483 5486 5488 5492 5496 5499 5501 5504 5507 5509 5512 5515 5518
5449 5447 5444 5442 5440 5438 5437 5436 5434 5433 5432 5430 5429 5428 5428 5427 5426 5425 5424 5424 5424 5423 5422 5422 5422 5422 5422 5421 5420 5420 5420 5420 5419 5420 5420 5421 5421 5422 5423 5425 5426 5427 5429 5431 5433 5436 5438 5441 5443 5446 5451 5456 5460 5463 5466 5470 5474 5477 5480 5484 5488 5492 5495 5498 5501 5503 5505 5508 5511
5440 5437 5435 5433 5431 5430 5428 5427 5425 5424 5423 5422 5421 5421 5420 5419 5418 5417 5417 5416 5416 5415 5414 5414 5414 5414 5414 5413 5413 5412 5412 5412 5412 5412 5413 5413 5413 5414 5416 5417 5418 5418 5420 5422 5424 5427 5429 5431 5433 5437 5442 5447 5450 5454 5457 5461 5466 5469 5473 5478 5481 5485 5488 5492 5495 5497 5500 5503 5506
5431 5428 5426 5424 5423 5421 5420 5418 5417 5416 5415 5414 5414 5413 5413 5412 5411 5410 5409 5409 5408 5408 5407 5407 5407 5407 5407 5406 5406 5405 5405 5406 5406 5406 5406 5407 5407 5408 5409 5410 5411 5411 5412 5414 5416 5418 5420 5423 5425 5429 5433 5438 5442 5445 5449 5453 5458 5463 5468 5472 5475 5479 5483 5486 5488 5491 5495 5498 5501
5423 5420 5418 5416 5415 5413 5412 5411 5410 5409 5408 5408 5407 5406 5406 5405 5404 5404 5403 5402 5402 5401 5401 5401 5400 5400 5400 5400 5399 5399 5399 5400 5400 5401 5401 5402 5402 5403 5403 5404 5405 5405 5406 5408 5410 5412 5414 5416 5418 5421 5425 5430 5433 5438 5442 5446 5452 5457 5462 5466 5470 5473 5477 5481 5484 5487 5490 5493 5496
5415 5413 5411 5409 5408 5406 5405 5404 5403 5403 5402 5401 5401 5400 5399 5399 5398 5398 5397 5396 5396 5395 5395 5395 5394 5394 5394 5394 5394 5394 5394 5394 5395 5396 5396 5397 5397 5398 5398 5399 5399 5400 5401 5403 5405 5407 5408 5410 5412 5414 5418 5422 5426 5430 5435 5440 5445 5451 5456 5461 5465 5469 5473 5477 5480 5483 5485 5488 5491
5408 5406 5405 5403 5402 5400 5399 5398 5397 5397 5396 5395 5395 5394 5393 5393 5392 5392 5391 5391 5390 5390 5389 5389 5389 5389 5388 5388 5389 5389 5389 5389 5390 5391 5392 5392 5393 5393 5393 5394 5394 5395 5396 5398 5400 5403 5404 5405 5407 5409 5412 5415 5419 5423 5428 5434 5439 5445 5450 5455 5460 5464 5469 5473 5475 5477 5479 5482 5486
5403 5401 5399 5398 5396 5395 5394 5393 5392 5391 5390 5390 5389 5388 5388 5387 5387 5386 5386 5385 5385 5385 5384 5384 5384 5384 5384 5384 5384 5384 5384 5385 5385 5386 5387 5387 5388 5388 5388 5388 5389 5390 5392 5393 5395 5398 5400 5401 5402 5403 5406 5409 5413 5417 5423 5428 5434 5440 5446 5451 5456 5460 5464 5467 5470 5472 5474 5477 5481
5398 5396 5394 5392 5391 5389 5388 5388 5387 5386 5385 5384 5383 5383 5382 5382 5381 5381 5380 5380 5380 5380 5379 5379 5379 5379 5379 5379 5379 5380 5380 5380 5381 5381 5382 5383 5383 5383 5383 5384 5385 5386 5387 5389 5391 5393 5396 5397 5398 5399 5401 5404 5408 5412 5418 5424 5430 5437 5443 5448 5452 5455 5458 5462 5465 5467 5469 5473 5477
5392 5390 5388 5387 5386 5384 5383 5382 5381 5380 5379 5378 5378 5377 5377 5376 5376 5376 5375 5375 5375 5375 5375 5374 5374 5374 5374 5374 5375 5375 5376 5376 5377 5377 5377 5378 5378 5378 5379 5379 5380 5381 5383 5385 5387 5389 5392 5393 5393 5394 5396 5399 5402 5407 5413 5420 5427 5434 5440 5443 5446 5449 5453 5457 5460 5463 5466 5470 5473
5387 5385 5383 5381 5380 5379 5378 5376 5375 5374 5373 5373 5372 5371 5371 5371 5371 5370 5370 5370 5370 5370 5370 5370 5370 5370 5370 5370 5371 5372 5372 5372 5372 5373 5373 5373 5374 5374 5374 5375 5376 5378 5379 5381 5383 5385 5387 5388 5388 5390 5392 5394 5398 5403 5410 5417 5424 5430 5434 5438 5442 5445 5449 5453 5457 5460 5463 5467 5470
5381 5379 5378 5376 5374 5373 5372 5371 5369 5368 5367 5366 5366 5365 5365 5365 5365 5365 5365 5365 5366 5366 5366 5366 5366 5366 5366 5367 5367 5368 5368 5368 5368 5368 5369 5369 5369 5369 5370 5371 5373 5374 5375 5378 5379 5381 5382 5383 5384 5385 5387 5390 5394 5400 5407 5414 5420 5425 5429 5433 5437 5442 5447 5451 5455 5458 5461 5464 5467
5376 5374 5372 5370 5368 5367 5366 5365 5364 5363 5361 5361 5360 5360 5359 5360 5360 5360 5361 5361 5361 5362 5362 5362 5362 5362 5363 5363 5363 5364 5364 5364 5364 5364 5364 5364 5364 5365 5366 5368 5369 5370 5371 5373 5375 5376 5377 5378 5379 5381 5383 5387 5391 5397 5403 5409 5415 5420 5425 5429 5434 5439 5444 5448 5451 5455 5458 5461 5464
5370 5368 5366 5364 5363 5362 5361 5360 5358 5357 5356 5356 5355 5354 5354 5354 5355 5355 5356 5356 5357 5358 5358 5358 5358 5359 5359 5360 5360 5360 5361 5361 5361 5361 5360 5360 5361 5361 5363 5363 5364 5365 5366 5368 5369 5370 5371 5373 5374 5376 5379 5383 5389 5394 5400 5406 5411 5416 5421 5426 5432 5437 5441 5445 5448 5452 5455 5458 5461
5365 5363 5361 5359 5358 5357 5356 5355 5354 5353 5352 5351 5350 5350 5349 5349 5349 5350 5351 5352 5353 5354 5354 5355 5355 5356 5357 5357 5357 5358 5358 5358 5357 5357 5357 5357 5357 5358 5358 5359 5359 5360 5361 5362 5363 5364 5366 5367 5370 5373 5376 5381 5386 5392 5397 5403 5408 5413 5418 5424 5429 5433 5437 5441 5445 5448 5451 5454 5457
5360 5358 5357 5355 5353 5352 5351 5350 5349 5348 5347 5346 5346 5345 5345 5345 5345 5346 5348 5349 5350 5351 5351 5352 5353 5353 5354 5354 5354 5354 5354 5354 5354 5353 5353 5354 5354 5354 5353 5353 5354 5355 5356 5356 5358 5359 5361 5363 5366 5370 5373 5378 5383 5389 5395 5400 5405 5411 5416 5421 5426 5430 5434 5438 5442 5445 5448 5451 5454
5356 5354 5352 5351 5349 5348 5347 5346 5345 5344 5343 5342 5341 5341 5341 5341 5342 5343 5344 5346 5347 5348 5348 5349 5350 5351 5351 5352 5352 5352 5352 5352 5351 5351 5351 5351 5350 5349 5348 5348 5349 5350 5351 5353 5354 5356 5358 5361 5364 5368 5372 5377 5382 5387 5393 5398 5403 5408 5413 5418 5423 5427 5431 5435 5439 5442 5445 5448 5451
5352 5350 5348 5347 5346 5344 5343 5342 5341 5339 5338 5337 5337 5337 5337 5338 5338 5340 5341 5343 5344 5345 5346 5347 5348 5348 5349 5350 5350 5350 5349 5349 5349 5348 5348 5347 5346 5345 5345 5345 5346 5347 5349 5351 5353 5355 5357 5360 5363 5367 5371 5376 5381 5386 5391 5396 5401 5406 5411 5415 5420 5425 5429 5433 5436 5439 5442 5445 5448
5348 5346 5344 5343 5342 5341 5339 5338 5336 5335 5334 5333 5333 5333 5333 5335 5336 5338 5339 5340 5342 5343 5344 5345 5346 5347 5347 5347 5348 5348 5347 5347 5346 5346 5345 5344 5343 5343 5343 5343 5344 5346 5349 5351 5353 5355 5357 5360 5363 5367 5371 5375 5380 5385 5390 5394 5399 5404 5408 5413 5418 5423 5427 5430 5433 5437 5439 5442 5445
5344 5343 5341 5339 5338 5336 5335 5333 5332 5330 5330 5329 5329 5330 5331 5333 5334 5336 5338 5338 5339 5341 5342 5343 5344 5344 5345 5345 5345 5345 5345 5345 5345 5344 5343 5342 5342 5342 5343 5343 5345 5347 5349 5351 5353 5356 5358 5361 5363 5366 5370 5374 5378 5383 5388 5393 5397 5402 5407 5411 5416 5420 5424 5428 5431 5434 5437 5440 5442
5341 5339 5337 5335 5333 5332 5330 5329 5328 5327 5326 5326 5327 5328 5329 5331 5333 5334 5336 5337 5338 5339 5340 5341 5342 5343 5343 5344 5344 5343 5343 5344 5343 5343 5342 5341 5342 5343 5344 5345 5346 5347 5349 5351 5353 5356 5358 5360 5363 5365 5368 5372 5376 5381 5385 5390 5395 5399 5404 5409 5413 5418 5422 5425 5429 5432 5434 5437 5439
5338 5335 5333 5331 5329 5328 5326 5325 5324 5323 5323 5324 5325 5326 5328 5330 5332 5333 5334 5335 5336 5337 5338 5339 5340 5341 5342 5343 5343 5342 5342 5342 5342 5342 5342 5342 5343 5344 5344 5345 5347 5348 5349 5352 5354 5356 5358 5359 5362 5364 5367 5371 5374 5379 5383 5388 5392 5397 5402 5406 5411 5415 5419 5423 5426 5429 5432 5434 5436
5333 5331 5329 5327 5325 5324 5322 5321 5321 5321 5321 5322 5323 5325 5327 5329 5330 5332 5333 5334 5335 5336 5337 5338 5339 5340 5341 5342 5341 5341 5341 5341 5341 5342 5342 5343 5343 5343 5344 5346 5348 5349 5350 5352 5354 5356 5358 5359 5361 5364 5367 5370 5374 5378 5382 5386 5391 5395 5400 5404 5408 5412 5417 5420 5424 5427 5429 5431 5433
5329 5328 5325 5324 5322 5321 5319 5319 5319 5319 5320 5321 5323 5324 5326 5328 5329 5330 5332 5333 5334 5335 5336 5337 5338 5339 5340 5341 5340 5340 5340 5340 5340 5342 5343 5343 5343 5343 5345 5346 5348 5349 5351 5353 5354 5356 5357 5359 5361 5363 5366 5370 5373 5377 5381 5386 5390 5394 5399 5403 5407 5411 5415 5419 5422 5424 5427 5429 5431